Fitchburg, MA

2:22 PM EDT on April 28, 2017 (GMT -0400)
Fitchburg Municipal

Weather History for KFIT - October, 2011

Change the Weather History Date:

Friday, October 28, 2011

  Actual Average (KORH) Record (KORH)
Temperature  
Mean Temperature 36 °F -  
Max Temperature 46 °F 56 °F 79 °F (1927)
Min Temperature 27 °F 36 °F 19 °F (1936)
Degree Days  
Heating Degree Days 28    
Moisture  
Dew Point 28 °F    
Average Humidity 71    
Maximum Humidity 92    
Minimum Humidity 49    
Precipitation  
Precipitation 0.00 in - - ()
Sea Level Pressure  
Sea Level Pressure 30.15 in    
Wind  
Wind Speed 5 mph (NW)    
Max Wind Speed 13 mph    
Max Gust Speed 20 mph    
Visibility 10 miles    
Events      
Averages and records for this station are not official NWS values.
T = Trace of Precipitation, MM = Missing Value Source: NWS Daily Summary

Daily Weather History Graph

Daily Weather History Graph

Search for Another Location

Airport or City:

Trip Planner

Search our weather history database for the weather conditions in past years. The results will help you decide how hot, cold, wet, or windy it might be!

Date:

Astronomy

Oct. 28, 2011 Rise Set
Actual Time 7:15 AM EDT 5:45 PM EDT
Civil Twilight 6:46 AM EDT 6:14 PM EDT
Nautical Twilight 6:13 AM EDT 6:47 PM EDT
Astronomical Twilight 5:40 AM EDT 7:20 PM EDT
Moon 9:31 AM EDT 7:01 PM EDT
Length of Visible Light 11h 28m
Length of Day
10h 30m
Waxing Crescent, 5% of the Moon is Illuminated
Oct 28
Waxing Crescent
Nov 2
First Quarter
Nov 10
Full
Nov 18
Last Quarter
Nov 25
New

Hourly Weather History & Observations

Time (EDT) Temp. Windchill Dew Point Humidity Pressure Visibility Wind Dir Wind Speed Gust Speed Precip Events Conditions
12:52 AM 35.1 °F 32.2 °F 30.9 °F 85% 29.94 in 10.0 mi NW 3.5 mph - N/A   Overcast
1:52 AM 33.1 °F 30.0 °F 30.0 °F 89% 29.95 in 10.0 mi NW 3.5 mph - N/A   Scattered Clouds
2:52 AM 32.0 °F - 28.9 °F 88% 29.98 in 10.0 mi Calm Calm - N/A   Clear
3:52 AM 32.0 °F 27.5 °F 28.0 °F 85% 30.00 in 10.0 mi NNW 4.6 mph - N/A   Clear
4:52 AM 32.0 °F 25.6 °F 28.0 °F 85% 30.03 in 10.0 mi WNW 6.9 mph - N/A   Clear
5:52 AM 30.0 °F 25.2 °F 27.0 °F 88% 30.07 in 10.0 mi WNW 4.6 mph - N/A   Clear
6:52 AM 27.0 °F 20.5 °F 25.0 °F 92% 30.10 in 10.0 mi WNW 5.8 mph - N/A   Clear
7:52 AM 32.0 °F 27.5 °F 26.1 °F 79% 30.13 in 10.0 mi West 4.6 mph - N/A   Clear
8:52 AM 35.1 °F - 27.0 °F 72% 30.16 in 10.0 mi Calm Calm - N/A   Clear
9:52 AM 37.9 °F 31.5 °F 27.0 °F 65% 30.16 in 10.0 mi NNW 9.2 mph - N/A   Clear
10:52 AM 39.9 °F 34.5 °F 28.0 °F 63% 30.17 in 10.0 mi NW 8.1 mph - N/A   Clear
11:52 AM 42.1 °F 36.1 °F 27.0 °F 55% 30.18 in 10.0 mi WNW 10.4 mph 16.1 mph N/A   Clear
1:52 PM 45.0 °F 40.1 °F 28.0 °F 52% 30.18 in 10.0 mi West 9.2 mph - N/A   Scattered Clouds
2:52 PM 46.0 °F 41.0 °F 28.0 °F 50% 30.17 in 10.0 mi WNW 10.4 mph - N/A   Partly Cloudy
3:52 PM 44.1 °F 37.7 °F 26.1 °F 49% 30.19 in 10.0 mi NNW 12.7 mph 19.6 mph N/A   Mostly Cloudy
4:52 PM 43.0 °F 37.2 °F 25.0 °F 49% 30.20 in 10.0 mi NNW 10.4 mph - N/A   Partly Cloudy
5:52 PM 39.9 °F 37.8 °F 27.0 °F 60% 30.21 in 10.0 mi NW 3.5 mph - N/A   Clear
6:52 PM 39.0 °F - 28.0 °F 65% 30.23 in 10.0 mi Calm Calm - N/A   Clear
7:52 PM 37.9 °F - 30.0 °F 73% 30.25 in 10.0 mi Calm Calm - N/A   Clear
8:52 PM 37.9 °F 35.5 °F 28.0 °F 68% 30.26 in 10.0 mi North 3.5 mph - N/A   Clear
9:52 PM 37.0 °F 33.3 °F 28.9 °F 73% 30.27 in 10.0 mi NNE 4.6 mph - N/A   Clear
10:52 PM 36.0 °F 31.1 °F 28.9 °F 76% 30.28 in 10.0 mi NNW 5.8 mph - N/A   Clear
11:52 PM 36.0 °F 31.1 °F 28.9 °F 76% 30.28 in 10.0 mi NNW 5.8 mph - N/A   Clear